Location: Cheching
(60.0667°N, 164.2167°W)
Time: 04:10:41
(UTC+00:00)

DMSP 5D-2 F13 DEB - Visible Passes

Search period start: 17 October 2021 00:00
Search period end: 27 October 2021 00:00
Orbit: 819 x 826 km, 98.8° (Epoch: 16 October)

Date Brightness Start Highest point End Pass type
(mag) Time Alt. Az. Time Alt. Az. Time Alt. Az.
17 Oct ? 05:05:47 10° SSW 05:10:52 42° W 05:16:01 10° NNW visible
18 Oct ? 04:45:25 10° S 04:50:42 56° WSW 04:56:02 10° NNW visible
18 Oct ? 06:29:20 10° WSW 06:32:04 14° W 06:34:47 10° NW visible
18 Oct ? 16:52:56 10° NNE 16:57:41 30° E 17:02:25 10° SSE visible
19 Oct ? 04:25:11 10° SSE 04:30:34 74° WSW 04:36:00 10° NNW visible
19 Oct ? 06:07:57 10° SW 06:11:39 19° W 06:15:22 10° NW visible
19 Oct ? 16:33:06 10° NE 16:37:23 23° E 16:41:38 10° SE visible
20 Oct ? 05:46:57 10° SW 05:51:17 24° W 05:55:41 10° NW visible
20 Oct ? 16:13:27 10° NE 16:17:01 18° E 16:20:34 10° SE visible
21 Oct ? 05:26:13 10° SSW 05:31:00 32° W 05:35:50 10° NNW visible
21 Oct ? 15:54:07 10° NE 15:56:35 13° ENE 15:59:03 10° ESE visible
22 Oct ? 05:05:40 10° SSW 05:10:45 42° W 05:15:54 10° NNW visible
22 Oct ? 06:52:12 10° WNW 06:52:25 10° WNW 06:52:37 10° WNW visible
23 Oct ? 04:45:17 10° S 04:50:34 56° WSW 04:55:54 10° NNW visible
23 Oct ? 06:29:11 10° WSW 06:31:55 14° W 06:34:41 10° NW visible
23 Oct ? 16:52:47 10° NNE 16:57:33 30° E 17:02:16 10° SSE visible
24 Oct ? 04:25:03 10° SSE 04:30:25 74° WSW 04:35:51 10° NNW visible
24 Oct ? 06:07:47 10° SW 06:11:30 19° W 06:15:14 10° NW visible
24 Oct ? 16:32:58 10° NE 16:37:13 23° E 16:41:28 10° SE visible
25 Oct ? 04:04:56 10° SSE 04:10:20 86° ENE 04:15:46 10° NNW visible
25 Oct ? 05:46:47 10° SW 05:51:08 25° W 05:55:31 10° NW visible
25 Oct ? 16:13:17 10° NE 16:16:51 17° E 16:20:23 10° SE visible
26 Oct ? 05:26:02 10° SSW 05:30:50 32° W 05:35:40 10° NNW visible
26 Oct ? 15:53:58 10° NE 15:56:25 13° ENE 15:58:50 10° ESE visible
